FW5704 Weather Reports


Display with metric or nautical units.
time (UTC)temp
F
wind
direction
speed
MPH
gust
MPH
rain 1hr
in
rain 24hr
in
rain mn
in
humidity
%
barometer
mb
20260508022033 49 0 0.0 0.0 0.00 0.43 0.38 89 1015.4
20260508021553 49 0 0.0 0.0 0.00 0.43 0.38 90 1015.5
20260508021034 50 0 0.0 0.0 0.00 0.43 0.38 89 1015.2
20260508020532 50 0 0.0 0.0 0.00 0.43 0.38 89 1015.1
20260508020046 50 0 0.0 0.0 0.00 0.43 0.38 89 1015.2
20260508015532 50 0 0.0 0.0 0.00 0.46 0.38 89 1015.1
20260508015033 50 0 0.0 0.0 0.00 0.46 0.38 89 1015.0
20260508014544 50 0 0.0 0.0 0.00 0.46 0.38 89 1014.7
20260508014034 51 0 0.0 0.0 0.00 0.46 0.38 88 1014.6
20260508013535 51 0 0.0 0.0 0.00 0.46 0.38 88 1014.6
20260508013050 51 0 0.0 0.0 0.00 0.46 0.38 88 1014.5
20260508012533 51 0 0.0 0.0 0.00 0.46 0.38 87 1014.5
20260508012033 52 0 0.0 0.0 0.00 0.46 0.38 87 1014.4
20260508011552 52 0 0.0 0.0 0.00 0.46 0.38 86 1014.3
20260508011036 52 0 0.0 0.0 0.00 0.46 0.38 86 1014.4
20260508010537 53 0 0.0 0.0 0.00 0.46 0.38 86 1014.3
20260508010101 53 0 0.0 0.0 0.00 0.46 0.38 85 1014.3
20260508005539 53 0 0.0 0.0 0.00 0.50 0.38 84 1014.3
20260508005034 53 0 0.0 3.0 0.00 0.50 0.38 84 1014.4
20260508004547 54 0 0.0 3.0 0.00 0.50 0.38 84 1014.1
20260508004035 54 0 0.0 3.0 0.00 0.50 0.38 82 1014.0
20260508003533 55 0 0.0 3.0 0.00 0.50 0.38 82 1014.0
20260508003044 55 0 0.0 2.0 0.00 0.50 0.38 83 1014.0
20260508002533 56 173 0.0 2.0 0.00 0.50 0.38 83 1014.0
20260508002033 56 0 0.0 4.0 0.00 0.50 0.38 79 1014.0
20260508001558 56 0 1.0 4.0 0.00 0.50 0.38 79 1013.8
20260508001033 56 0 1.0 4.0 0.00 0.50 0.38 78 1013.7
20260508000532 56 19 0.0 2.0 0.00 0.50 0.38 79 1013.6
20260508000052 56 34 0.0 1.0 0.00 0.50 0.38 78 1013.5
20260507235533 56 0 0.0 2.0 0.00 0.54 0.38 80 1013.6
20260507235034 56 0 0.0 2.0 0.00 0.54 0.38 78 1013.6
20260507234548 57 0 0.0 2.0 0.00 0.54 0.38 80 1013.6
20260507234033 57 0 0.0 2.0 0.00 0.54 0.38 79 1013.5
20260507233534 57 0 0.0 2.0 0.00 0.54 0.38 78 1013.2
20260507233046 57 0 0.0 2.0 0.00 0.54 0.38 74 1013.2
20260507232534 58 0 0.0 2.0 0.00 0.54 0.38 75 1013.2
20260507232033 58 0 0.0 2.0 0.00 0.54 0.38 76 1013.1
20260507231546 58 0 0.0 3.0 0.00 0.54 0.38 76 1013.2
20260507231033 58 0 0.0 3.0 0.00 0.54 0.38 74 1013.2
20260507230533 59 74 0.0 3.0 0.00 0.54 0.38 77 1013.2
20260507230111 59 74 0.0 3.0 0.00 0.54 0.38 74 1013.4
20260507225534 59 0 0.0 3.0 0.00 0.58 0.38 74 1013.4
20260507225033 60 0 0.0 3.0 0.00 0.58 0.38 78 1013.2
20260507224549 60 0 0.0 3.0 0.00 0.58 0.38 78 1013.1
20260507224033 60 302 0.0 3.0 0.00 0.58 0.38 76 1013.2
20260507223537 59 246 1.0 3.0 0.00 0.58 0.38 74 1013.3
20260507223132 59 0 0.0 2.0 0.00 0.58 0.38 78 1013.3
20260507222533 59 296 0.0 3.0 0.00 0.58 0.38 77 1013.2
20260507222033 59 0 0.0 3.0 0.00 0.58 0.38 75 1013.1
20260507221545 59 255 0.0 3.0 0.00 0.58 0.38 76 1013.1
20260507221033 59 0 0.0 3.0 0.00 0.58 0.38 80 1013.1
20260507220533 59 250 0.0 3.0 0.00 0.58 0.38 80 1013.0
20260507220052 59 248 1.0 3.0 0.00 0.58 0.38 80 1013.2
20260507215533 59 260 0.0 6.0 0.00 0.63 0.38 79 1013.0
20260507215036 59 0 1.0 6.0 0.00 0.63 0.38 79 1012.8
20260507214556 59 259 1.0 10.0 0.00 0.63 0.38 78 1012.6
20260507214033 59 276 3.0 10.0 0.00 0.63 0.38 78 1012.6
20260507213534 59 244 3.0 10.0 0.00 0.63 0.38 79 1012.5
20260507213121 59 250 2.0 12.0 0.00 0.63 0.38 79 1012.4
20260507212535 59 270 3.0 12.0 0.00 0.63 0.38 78 1012.4
20260507212034 60 260 2.0 14.0 0.00 0.63 0.38 78 1012.4
20260507211548 60 263 4.0 14.0 0.00 0.63 0.38 76 1012.3
20260507211032 61 213 4.0 13.0 0.00 0.63 0.38 76 1012.1
20260507210532 61 271 4.0 16.0 0.00 0.63 0.38 76 1011.9
20260507210050 61 250 5.0 16.0 0.00 0.63 0.38 76 1011.9
20260507205536 61 271 5.0 15.0 0.00 0.67 0.38 77 1011.9
20260507205034 61 253 6.0 15.0 0.00 0.67 0.38 77 1011.9
20260507204544 62 245 6.0 18.0 0.00 0.67 0.38 77 1011.8
20260507204034 62 252 6.0 18.0 0.00 0.67 0.38 76 1011.8
20260507203534 62 261 6.0 16.0 0.00 0.67 0.38 77 1011.5
20260507203054 63 279 6.0 15.0 0.00 0.67 0.38 77 1011.5
20260507202534 63 254 7.0 15.0 0.00 0.67 0.38 75 1011.3
20260507202036 64 259 5.0 14.0 0.00 0.67 0.38 76 1011.4
20260507201603 64 261 5.0 16.0 0.00 0.67 0.38 76 1011.5
20260507201034 64 261 5.0 16.0 0.00 0.67 0.38 76 1011.5
20260507200533 64 254 5.0 15.0 0.00 0.67 0.38 76 1011.5
20260507200055 64 263 6.0 14.0 0.00 0.67 0.38 74 1011.6
20260507195533 65 244 4.0 12.0 0.00 0.71 0.38 74 1011.6
20260507195036 65 228 5.0 14.0 0.00 0.71 0.38 76 1011.7
20260507194545 65 252 4.0 18.0 0.00 0.71 0.38 76 1011.7
20260507194035 65 237 6.0 18.0 0.00 0.71 0.38 75 1011.6
20260507193534 66 267 4.0 11.0 0.00 0.71 0.38 74 1011.8
20260507193048 66 261 5.0 12.0 0.00 0.71 0.38 75 1011.7
20260507192533 66 240 3.0 12.0 0.00 0.71 0.38 76 1011.7
20260507192032 65 269 6.0 13.0 0.00 0.71 0.38 77 1011.7
20260507191553 65 248 6.0 13.0 0.00 0.71 0.38 76 1011.6
20260507191037 66 238 4.0 15.0 0.00 0.71 0.38 77 1011.8
20260507190533 65 233 6.0 15.0 0.00 0.71 0.38 76 1011.7
20260507190052 66 252 5.0 14.0 0.00 0.71 0.38 77 1011.5
20260507185532 65 250 3.0 16.0 0.00 0.74 0.38 78 1011.7
20260507185035 65 259 4.0 16.0 0.00 0.74 0.38 78 1011.8
20260507184546 65 256 4.0 11.0 0.00 0.74 0.38 78 1011.9
20260507184033 65 267 2.0 13.0 0.00 0.74 0.38 79 1012.0
20260507183534 65 258 3.0 13.0 0.00 0.74 0.38 81 1012.0
20260507183045 64 263 3.0 13.0 0.00 0.74 0.38 81 1011.9
20260507182533 63 259 4.0 13.0 0.00 0.74 0.38 82 1012.1
20260507182033 63 254 3.0 13.0 0.00 0.74 0.38 82 1012.1
20260507181543 63 234 5.0 12.0 0.00 0.74 0.38 82 1012.1
20260507181033 63 248 4.0 11.0 0.00 0.74 0.38 83 1012.2
20260507180535 62 259 3.0 11.0 0.00 0.74 0.38 84 1012.3
20260507180054 62 250 3.0 10.0 0.19 0.74 0.38 85 1012.3
20260507175533 61 201 4.0 12.0 0.20 0.79 0.38 86 1012.4
20260507175033 61 257 5.0 12.0 0.20 0.79 0.38 86 1012.4
20260507174555 61 275 3.0 14.0 0.20 0.79 0.38 87 1012.5
20260507174034 61 257 4.0 14.0 0.20 0.79 0.38 87 1012.5
20260507173533 61 271 4.0 13.0 0.20 0.79 0.38 87 1012.5
20260507173049 61 261 5.0 13.0 0.20 0.79 0.38 86 1012.6
20260507172538 61 261 4.0 12.0 0.20 0.79 0.38 86 1012.5
20260507172032 62 243 5.0 12.0 0.20 0.79 0.38 86 1012.6
20260507171557 62 249 6.0 12.0 0.21 0.79 0.38 85 1012.5
20260507171033 62 261 5.0 11.0 0.21 0.79 0.38 85 1012.3
20260507170533 62 254 3.0 11.0 0.21 0.79 0.38 85 1012.4
20260507170048 63 257 4.0 15.0 0.02 0.60 0.19 85 1012.3
20260507165533 63 259 4.0 15.0 0.01 0.64 0.18 84 1012.3
20260507165032 63 245 4.0 11.0 0.01 0.64 0.18 85 1012.2
20260507164543 63 251 4.0 11.0 0.01 0.64 0.18 85 1012.0
20260507164033 62 259 4.0 11.0 0.01 0.64 0.18 86 1012.1
20260507163535 62 260 4.0 11.0 0.02 0.64 0.18 85 1012.0
20260507163043 62 267 3.0 11.0 0.02 0.64 0.18 86 1012.1
20260507162534 62 232 4.0 11.0 0.02 0.64 0.18 86 1012.2
20260507162033 62 222 4.0 10.0 0.02 0.64 0.18 86 1012.0
20260507161553 62 257 3.0 10.0 0.01 0.63 0.17 86 1011.9
20260507161033 62 259 3.0 12.0 0.01 0.63 0.17 86 1011.9
20260507160535 62 271 3.0 12.0 0.01 0.63 0.17 86 1011.7
20260507160048 62 243 4.0 11.0 0.01 0.63 0.17 87 1011.8
20260507155535 62 261 3.0 10.0 0.02 0.70 0.17 88 1011.7
20260507155034 62 257 4.0 10.0 0.02 0.70 0.17 89 1011.8
20260507154546 62 265 3.0 10.0 0.02 0.70 0.17 89 1011.7
20260507154036 62 254 4.0 10.0 0.02 0.70 0.17 91 1011.8
20260507153534 61 243 3.0 9.0 0.01 0.69 0.16 93 1012.0
20260507153043 61 251 2.0 9.0 0.01 0.69 0.16 94 1012.0
20260507152536 61 257 3.0 9.0 0.01 0.69 0.16 94 1012.0
20260507152035 61 245 2.0 9.0 0.01 0.69 0.16 95 1011.9
20260507151553 61 258 3.0 9.0 0.01 0.69 0.16 95 1011.9
20260507151034 61 253 3.0 9.0 0.01 0.69 0.16 96 1012.0
20260507150534 61 268 3.0 9.0 0.02 0.69 0.16 96 1012.1
20260507150051 61 257 3.0 9.0 0.02 0.69 0.16 97 1012.0
20260507145533 60 252 2.0 10.0 0.01 0.75 0.15 97 1012.1
20260507145032 60 241 2.0 10.0 0.01 0.75 0.15 97 1012.1
20260507144543 60 261 3.0 11.0 0.01 0.75 0.15 97 1012.2
20260507144034 60 262 3.0 11.0 0.01 0.75 0.15 97 1012.4
20260507143539 60 243 2.0 10.0 0.01 0.75 0.15 97 1012.4
20260507143050 60 265 3.0 10.0 0.01 0.75 0.15 97 1012.3
20260507142535 60 258 2.0 10.0 0.01 0.75 0.15 97 1012.0
20260507142034 60 266 3.0 10.0 0.01 0.75 0.15 97 1012.2
20260507141542 60 274 1.0 8.0 0.01 0.75 0.15 97 1012.1
20260507141033 60 257 1.0 4.0 0.00 0.74 0.14 97 1012.0
20260507140535 60 267 1.0 4.0 0.01 0.74 0.14 97 1011.8
20260507140049 60 257 0.0 4.0 0.01 0.74 0.14 97 1011.7
20260507135534 60 258 0.0 4.0 0.01 0.74 0.14 97 1011.7
20260507135036 60 259 0.0 2.0 0.01 0.74 0.14 97 1011.7
20260507134547 60 0 0.0 2.0 0.01 0.74 0.14 97 1011.5
20260507134032 60 0 1.0 2.0 0.01 0.74 0.14 97 1011.5
20260507133532 60 259 0.0 3.0 0.01 0.74 0.14 97 1011.5
20260507133045 60 0 0.0 3.0 0.01 0.74 0.14 97 1011.3
20260507132532 60 0 0.0 2.0 0.01 0.74 0.14 97 1011.5
20260507132033 59 0 0.0 2.0 0.01 0.74 0.14 97 1011.3
20260507131543 59 0 0.0 0.0 0.01 0.74 0.14 97 1011.2
20260507131035 59 0 0.0 2.0 0.01 0.74 0.14 97 1011.2
20260507130535 59 0 0.0 3.0 0.00 0.73 0.13 97 1011.0
20260507130058 59 0 0.0 3.0 0.01 0.73 0.13 97 1011.8
20260507125535 59 0 0.0 3.0 0.01 0.77 0.13 97 1012.1
20260507125035 59 259 0.0 4.0 0.01 0.77 0.13 97 1012.1
20260507124607 59 0 1.0 4.0 0.01 0.77 0.13 97 1011.9
20260507124033 59 0 0.0 5.0 0.01 0.77 0.13 97 1011.9
20260507123533 59 0 0.0 5.0 0.01 0.77 0.13 97 1012.0
20260507123103 59 248 2.0 5.0 0.01 0.77 0.13 97 1012.6
20260507122532 59 248 1.0 4.0 0.01 0.77 0.13 97 1012.8
20260507122032 59 256 2.0 4.0 0.02 0.77 0.13 97 1012.8
20260507121558 59 229 0.0 2.0 0.02 0.77 0.13 97 1011.7
20260507121033 59 0 0.0 1.0 0.02 0.77 0.13 97 1011.4
20260507120540 59 0 0.0 1.0 0.02 0.77 0.13 97 1011.6
20260507120055 58 0 0.0 1.0 0.01 0.76 0.12 97 1011.4
20260507115536 58 0 0.0 1.0 0.01 0.76 0.12 97 1011.5
20260507115035 58 0 0.0 1.0 0.01 0.76 0.12 97 1011.6
20260507114552 58 0 0.0 1.0 0.01 0.76 0.12 97 1011.4
20260507114035 58 0 0.0 0.0 0.01 0.76 0.12 97 1011.1
20260507113537 59 0 0.0 0.0 0.01 0.76 0.12 97 1010.9
20260507113047 59 0 0.0 0.0 0.02 0.76 0.12 97 1011.1
20260507112535 58 0 0.0 0.0 0.01 0.75 0.11 97 1011.0
20260507112033 59 0 0.0 0.0 0.01 0.75 0.11 97 1011.3
20260507111551 59 0 0.0 1.0 0.01 0.75 0.11 97 1011.5
20260507111032 59 0 0.0 1.0 0.01 0.75 0.11 97 1011.8
20260507110532 59 0 0.0 1.0 0.01 0.75 0.11 96 1011.4
20260507110048 59 0 0.0 1.0 0.01 0.75 0.11 96 1011.5
20260507105533 59 0 0.0 1.0 0.01 0.75 0.11 96 1011.0
20260507105035 59 225 0.0 2.0 0.02 0.75 0.11 96 1011.1
20260507104553 59 0 0.0 2.0 0.02 0.75 0.11 96 1011.4
20260507104037 59 0 0.0 0.0 0.02 0.75 0.11 96 1012.0
20260507103536 59 0 0.0 0.0 0.02 0.75 0.11 96 1012.5
20260507103042 59 0 0.0 3.0 0.01 0.74 0.10 96 1012.9
20260507102535 59 0 0.0 3.0 0.01 0.74 0.10 96 1012.7
20260507102036 59 237 1.0 3.0 0.01 0.74 0.10 96 1012.6
20260507101557 59 0 0.0 1.0 0.01 0.74 0.10 96 1012.3
20260507101034 59 0 0.0 1.0 0.01 0.74 0.10 96 1011.7
20260507100532 59 0 0.0 1.0 0.01 0.74 0.10 96 1011.4
20260507100056 59 0 0.0 1.0 0.01 0.74 0.10 97 1011.5
20260507095533 59 0 0.0 3.0 0.02 0.74 0.10 96 1011.9
20260507095034 59 0 0.0 4.0 0.01 0.73 0.09 96 1012.2
20260507094544 59 269 0.0 4.0 0.01 0.73 0.09 96 1012.5
20260507094032 59 257 1.0 4.0 0.01 0.73 0.09 96 1012.5
20260507093532 59 267 0.0 0.0 0.01 0.73 0.09 97 1011.5
20260507093043 59 0 0.0 0.0 0.01 0.73 0.09 97 1011.0
20260507092538 59 0 0.0 0.0 0.01 0.73 0.09 96 1011.0
20260507092039 59 0 0.0 0.0 0.01 0.73 0.09 97 1011.3
20260507091547 59 0 0.0 1.0 0.02 0.73 0.09 97 1011.4
20260507091035 59 0 0.0 1.0 0.02 0.73 0.09 97 1011.6
20260507090535 59 0 0.0 2.0 0.02 0.73 0.09 97 1011.4
20260507090049 59 0 0.0 2.0 0.02 0.73 0.09 97 1011.8
20260507085535 59 267 1.0 2.0 0.01 0.72 0.08 96 1012.0
20260507085036 59 273 0.0 0.0 0.01 0.72 0.08 96 1011.7
20260507084551 59 0 0.0 0.0 0.01 0.72 0.08 96 1011.5
20260507084032 59 0 0.0 0.0 0.01 0.72 0.08 96 1011.1
20260507083533 59 0 0.0 0.0 0.01 0.72 0.08 96 1011.3
20260507083105 59 0 0.0 0.0 0.02 0.72 0.08 96 1011.1
20260507082533 59 0 0.0 0.0 0.02 0.72 0.08 96 1011.3
20260507082032 59 0 0.0 0.0 0.02 0.72 0.08 96 1011.1
20260507081555 59 0 0.0 0.0 0.01 0.71 0.07 96 1011.1
20260507081033 59 0 0.0 0.0 0.01 0.71 0.07 96 1011.3
20260507080537 59 0 0.0 0.0 0.01 0.71 0.07 96 1011.1
20260507080052 59 0 0.0 0.0 0.01 0.71 0.07 96 1011.5
20260507075537 59 0 0.0 0.0 0.01 0.71 0.07 96 1011.9
20260507075035 60 0 0.0 0.0 0.02 0.71 0.07 96 1012.0
20260507074548 60 0 0.0 0.0 0.02 0.71 0.07 96 1012.0
20260507074034 60 0 0.0 0.0 0.02 0.71 0.07 96 1012.1
20260507073535 60 0 0.0 0.0 0.02 0.71 0.07 96 1012.3
20260507073057 60 0 0.0 0.0 0.01 0.70 0.06 96 1012.2
20260507072536 60 0 0.0 0.0 0.01 0.70 0.06 96 1012.1
20260507072036 60 0 0.0 0.0 0.01 0.70 0.06 96 1012.1
20260507071546 60 0 0.0 3.0 0.01 0.70 0.06 96 1012.3
20260507071032 60 0 0.0 3.0 0.02 0.70 0.06 96 1012.2
20260507070532 60 280 0.0 2.0 0.02 0.70 0.06 96 1012.7
20260507070046 60 0 0.0 2.0 0.02 0.70 0.06 96 1012.5
20260507065541 60 0 0.0 6.0 0.02 0.70 0.06 96 1012.6
20260507065033 60 290 1.0 6.0 0.01 0.69 0.05 96 1012.6
20260507064548 60 257 3.0 6.0 0.02 0.69 0.05 96 1013.7
20260507064038 60 0 0.0 0.0 0.02 0.69 0.05 96 1011.9
20260507063535 60 0 0.0 0.0 0.02 0.69 0.05 96 1011.6
20260507063052 60 0 0.0 1.0 0.02 0.69 0.05 96 1011.9
20260507062533 60 0 0.0 1.0 0.02 0.69 0.05 96 1012.2
20260507062035 60 0 0.0 6.0 0.02 0.69 0.05 96 1012.5
20260507061606 60 328 0.0 6.0 0.02 0.69 0.05 96 1012.8
20260507061033 60 261 1.0 6.0 0.02 0.68 0.04 96 1013.2
20260507060534 60 0 0.0 0.0 0.02 0.68 0.04 96 1012.7
20260507060046 60 0 0.0 0.0 0.02 0.68 0.04 96 1012.3
20260507055537 60 0 0.0 0.0 0.02 0.68 0.04 96 1012.4
20260507055033 60 0 0.0 0.0 0.02 0.68 0.04 96 1012.7
20260507054545 60 0 0.0 1.0 0.02 0.67 0.03 96 1013.0
20260507054036 60 0 0.0 1.0 0.02 0.67 0.03 96 1013.5
20260507053534 60 0 0.0 1.0 0.02 0.67 0.03 96 1013.3
20260507053045 60 270 0.0 2.0 0.02 0.67 0.03 96 1013.7
20260507052533 60 0 1.0 2.0 0.02 0.67 0.03 96 1013.5
20260507052033 60 0 0.0 0.0 0.02 0.67 0.03 96 1012.9
20260507051544 60 0 0.0 0.0 0.03 0.67 0.03 96 1014.0
20260507051033 60 0 0.0 0.0 0.02 0.66 0.02 96 1014.2
20260507050535 60 0 0.0 0.0 0.02 0.66 0.02 96 1014.1
20260507050055 60 0 0.0 0.0 0.02 0.66 0.02 96 1013.8
20260507045534 60 0 0.0 2.0 0.02 0.66 0.02 96 1013.6
20260507045034 60 0 0.0 2.0 0.02 0.65 0.01 96 1014.2
20260507044547 60 267 0.0 2.0 0.02 0.65 0.01 96 1014.6
20260507044033 60 0 0.0 4.0 0.02 0.65 0.01 96 1014.0
20260507043533 60 0 0.0 4.0 0.02 0.65 0.01 96 1014.6
20260507043045 60 254 0.0 4.0 0.02 0.65 0.01 96 1015.1
20260507042534 60 0 0.0 1.0 0.02 0.65 0.01 96 1014.4
20260507042037 60 0 0.0 2.0 0.03 0.65 0.01 96 1014.4
20260507041547 60 0 0.0 4.0 0.02 0.64 0.00 96 1014.3
20260507041040 60 0 1.0 4.0 0.02 0.64 0.00 96 1014.6
20260507040535 60 246 0.0 2.0 0.02 0.64 0.00 96 1014.3
20260507040045 60 0 0.0 2.0 0.02 0.64 0.00 96 1014.0
20260507035533 60 229 0.0 1.0 0.03 0.64 0.64 96 1014.0
20260507035036 60 229 0.0 1.0 0.02 0.63 0.63 96 1013.4
20260507034549 60 0 0.0 0.0 0.02 0.63 0.63 96 1013.8
20260507034034 60 0 0.0 0.0 0.02 0.63 0.63 96 1013.7
20260507033536 61 0 0.0 0.0 0.02 0.63 0.63 96 1013.5
20260507033052 61 0 0.0 0.0 0.03 0.63 0.63 96 1013.8
20260507032536 60 0 0.0 2.0 0.03 0.63 0.63 96 1013.9
20260507032033 61 0 0.0 2.0 0.02 0.62 0.62 96 1014.2
20260507031550 61 230 0.0 2.0 0.02 0.62 0.62 96 1014.4
20260507031037 61 0 0.0 1.0 0.03 0.62 0.62 96 1013.8
20260507030533 61 0 0.0 1.0 0.03 0.62 0.62 96 1013.9
20260507030045 61 0 0.0 1.0 0.03 0.62 0.62 96 1013.8
20260507025533 61 0 0.0 0.0 0.02 0.61 0.61 96 1013.9
20260507025037 61 0 0.0 0.0 0.03 0.61 0.61 96 1013.9
20260507024559 61 0 0.0 0.0 0.03 0.61 0.61 96 1013.9
20260507024035 61 0 0.0 0.0 0.03 0.61 0.61 96 1013.9
20260507023541 61 0 0.0 0.0 0.03 0.61 0.61 96 1013.9
20260507023046 61 0 0.0 1.0 0.03 0.60 0.60 96 1013.9
20260507022535 61 0 0.0 2.0 0.03 0.60 0.60 96 1014.1